Wind_Speed
113 113 114 114 114 115 116 116 116 116 116 117 117 117 117 118 118 118 119 119 119 119 120 120 120 121 121 121 122 122 122 123 123 123 122 122 121 121 121 121 121 121 120 120 120 119 118 117 115 112 110 108 106 104 103 102 100 99 98 96 95 93 92 91 89 88 86 85 84 83 81 80 79 78 77 76 75 75 74 73 72 71 71 70 69 69
113 113 114 114 114 115 116 116 116 116 116 117 117 117 118 118 118 119 119 119 120 120 121 121 121 122 122 123 123 123 123 123 123 123 122 122 122 122 122 122 122 122 121 121 120 119 117 116 113 111 109 107 105 103 102 101 99 98 96 95 93 92 90 89 87 86 85 83 82 81 80 79 78 77 76 75 75 74 73 72 72 71 70 70 69 68
113 113 114 114 115 115 116 116 116 116 117 117 117 118 118 119 119 120 120 120 121 121 122 122 122 123 123 124 124 124 124 123 123 123 123 122 122 122 123 123 123 122 122 121 120 118 116 114 112 109 107 105 104 102 101 99 98 96 95 93 92 90 88 87 85 84 83 82 81 79 79 78 77 76 75 75 74 73 72 72 71 70 70 69 69 68
113 113 114 114 115 115 116 116 116 117 117 117 118 118 118 119 120 120 121 121 122 122 123 123 124 124 124 124 124 124 124 123 123 123 123 123 123 124 124 124 123 123 122 120 119 117 115 112 110 108 106 104 103 101 99 98 96 95 93 91 90 88 87 85 84 82 81 80 79 78 77 76 76 75 74 74 73 72 72 71 71 70 70 69 69 68
113 113 114 114 115 115 116 116 117 117 117 118 118 118 119 120 120 121 122 122 123 123 124 124 125 125 125 124 124 124 123 123 123 123 124 124 124 124 124 124 123 122 121 119 117 115 113 111 109 107 105 103 101 100 98 96 94 93 91 89 88 86 85 83 82 80 79 78 77 76 76 75 74 74 73 73 72 72 71 71 70 70 69 69 68 68
114 114 114 115 115 116 116 117 117 118 118 119 119 120 120 121 122 123 123 124 124 124 125 125 125 124 124 124 124 124 124 124 124 125 125 125 125 125 124 123 122 121 119 118 116 113 111 109 107 105 103 101 100 98 96 94 92 91 89 87 86 84 82 81 80 79 77 77 76 75 74 74 73 73 72 72 71 71 71 70 70 69 69 68 68 68
115 115 115 115 116 117 117 118 119 119 120 120 121 122 122 123 123 124 124 124 124 125 125 124 124 124 124 124 124 124 125 125 125 126 126 125 125 124 123 122 121 119 118 116 113 111 109 107 105 103 101 100 97 96 94 92 90 88 87 85 83 82 80 79 78 77 76 75 74 74 73 73 72 72 71 71 71 70 70 70 69 69 68 68 67 67
116 117 117 117 118 119 119 120 121 121 122 122 123 124 124 124 124 124 124 124 124 124 124 124 124 124 124 125 125 125 126 126 126 126 125 125 124 123 122 121 119 117 116 113 111 109 107 106 104 101 99 97 95 93 91 89 87 86 84 82 81 79 78 77 76 75 74 74 73 73 72 72 71 71 71 70 70 70 69 69 69 68 68 67 67 67
118 119 120 120 120 121 122 122 123 123 123 124 124 124 125 125 125 125 125 124 124 124 124 124 124 125 125 126 126 126 126 126 125 125 124 123 122 121 120 118 117 115 113 111 109 107 105 103 101 99 97 94 92 90 88 86 85 83 81 80 78 77 76 75 74 74 73 73 72 72 71 71 71 70 70 70 69 69 69 68 68 68 67 67 66 66
121 121 121 122 122 122 123 123 124 124 124 124 124 124 125 124 125 125 125 125 125 124 124 125 125 126 126 126 126 126 125 125 124 123 122 121 120 119 118 116 115 113 111 109 107 105 103 101 99 96 94 91 89 87 85 83 82 80 79 77 76 75 74 74 73 72 72 71 71 71 70 70 70 69 69 69 68 68 68 68 67 67 66 66 66 65
122 122 122 123 123 123 123 124 124 125 125 125 125 125 125 125 124 124 125 125 125 126 126 126 126 126 126 125 125 124 123 122 121 121 120 119 117 116 115 114 112 110 109 107 105 103 100 98 96 93 91 88 86 84 82 80 79 77 76 75 74 73 73 72 71 71 71 70 70 70 69 69 69 68 68 68 68 67 67 67 66 66 66 65 65 65
122 123 123 123 124 124 124 124 125 125 125 125 125 125 125 125 125 125 125 126 126 126 126 126 125 125 124 123 122 121 120 120 119 118 117 116 115 114 113 111 110 108 106 104 102 100 97 95 92 90 87 85 83 81 79 78 76 75 74 73 73 72 71 71 70 70 69 69 69 68 68 68 68 67 67 67 67 66 66 66 66 65 65 65 64 64
123 123 123 124 124 124 125 125 125 125 126 125 126 126 126 126 126 126 126 126 126 126 125 124 123 122 121 120 119 118 117 117 116 116 115 114 113 112 110 109 108 106 104 102 99 97 94 92 89 87 84 82 80 78 77 75 74 73 73 72 71 70 70 69 69 68 68 68 67 67 67 67 67 66 66 66 66 65 65 65 65 64 64 64 64 63
124 124 124 124 125 125 125 125 126 126 126 126 126 126 126 126 126 126 126 125 125 124 123 121 120 119 118 117 116 115 115 115 114 114 113 112 111 110 108 107 106 104 102 99 97 94 91 89 86 84 81 79 78 76 75 73 73 72 71 70 69 69 68 68 67 67 67 66 66 66 66 65 65 65 65 65 65 64 64 64 64 64 64 63 63 63
124 124 125 125 125 125 126 126 126 126 126 126 126 126 126 126 125 125 124 123 122 121 120 119 117 116 115 115 114 113 113 113 113 113 112 111 109 108 107 105 103 102 99 97 94 91 88 86 83 81 79 77 75 74 73 72 71 70 69 68 68 67 67 66 66 66 65 65 65 65 65 64 64 64 64 64 64 63 63 63 63 63 63 63 63 63
124 125 125 125 126 126 126 126 126 126 126 126 126 125 125 124 124 123 121 120 119 118 117 116 115 115 114 113 113 112 112 112 112 112 111 110 108 106 105 103 101 99 97 94 91 88 85 83 80 78 76 75 73 72 71 70 69 68 67 67 66 66 65 65 64 64 64 64 64 63 63 63 63 63 63 62 62 62 62 62 62 62 63 63 63 63
125 125 125 126 126 126 126 126 126 126 125 125 124 124 123 122 121 120 119 118 117 116 115 114 114 114 114 113 113 112 112 111 111 111 110 109 107 105 103 101 99 96 94 91 88 85 83 80 78 76 74 72 71 70 69 68 67 67 66 65 65 64 64 63 63 63 63 62 62 62 62 62 62 62 61 62 61 62 62 62 62 62 62 62 62 63
125 125 126 126 126 126 126 126 125 125 124 123 123 122 121 119 118 117 117 116 115 115 114 114 114 114 114 114 114 112 111 111 110 110 109 108 106 103 101 98 96 93 91 88 85 82 80 77 75 73 72 70 69 68 67 67 66 65 64 64 63 63 62 62 62 62 61 61 61 61 61 61 61 61 61 61 61 61 61 61 62 62 62 62 63 63
125 126 125 126 126 125 125 125 124 123 122 121 120 119 118 117 116 116 115 115 115 115 115 115 115 115 115 115 114 112 111 110 109 109 108 106 104 102 99 96 93 90 87 85 82 79 77 74 72 71 70 68 67 67 66 65 64 64 63 63 62 62 61 61 61 60 60 60 60 60 60 60 60 60 60 60 60 60 61 61 62 62 62 63 63 63
125 125 125 125 125 124 124 123 122 121 120 119 118 117 117 116 116 115 115 115 115 115 116 116 116 116 115 115 114 112 110 109 108 107 106 104 102 99 96 93 90 87 84 81 78 76 74 72 70 69 68 67 66 65 64 63 63 62 62 61 61 61 60 60 60 59 59 59 59 59 59 59 59 59 60 60 60 60 61 61 62 62 63 63 63 64
125 125 124 124 123 123 123 122 121 119 118 117 117 116 116 116 116 116 116 116 116 117 116 117 116 116 115 114 113 111 109 108 106 105 103 101 99 96 93 89 86 83 80 77 75 73 71 69 68 67 66 65 64 63 63 62 61 61 61 60 60 59 59 59 59 59 58 58 58 59 59 59 59 59 60 60 60 61 61 61 62 63 63 64 64 65
124 124 124 123 122 122 121 120 119 118 117 117 116 117 117 117 117 117 117 117 117 118 117 117 116 115 114 113 112 110 108 106 104 102 100 98 96 93 89 86 82 79 77 74 72 70 68 67 66 65 64 63 62 62 61 61 60 60 60 59 59 59 58 58 58 58 58 58 58 58 59 59 59 59 60 60 61 61 62 62 63 63 64 65 65 66
123 123 122 122 121 120 119 119 118 117 117 117 117 117 117 118 118 118 118 118 118 117 117 116 115 114 112 111 110 108 106 104 101 99 96 94 92 89 86 82 79 76 74 72 69 68 66 65 64 63 62 61 61 60 60 60 59 59 59 58 58 58 58 58 58 58 58 58 58 59 59 59 60 60 60 61 61 62 62 63 64 64 65 66 66 67
122 122 121 121 120 119 119 118 118 118 117 118 118 118 118 118 119 119 118 118 117 116 115 114 113 112 111 109 107 105 103 101 98 95 93 90 88 85 82 79 76 73 72 69 67 65 64 63 62 61 60 60 59 59 59 59 58 58 58 58 58 58 57 57 58 58 58 58 59 59 59 60 60 61 61 62 62 63 64 64 65 66 66 67 68 68
122 121 121 120 119 119 118 118 118 118 119 119 119 119 119 119 119 118 118 117 116 115 113 112 111 110 109 107 105 102 100 98 95 92 89 87 84 81 78 75 73 71 69 68 66 64 63 62 61 60 59 59 58 58 58 58 57 57 57 57 57 57 57 58 58 58 59 59 60 60 61 61 62 62 63 63 64 64 65 65 66 67 68 69 69 70
121 121 120 120 119 119 119 119 119 119 120 120 120 120 120 119 118 117 116 115 114 113 111 110 109 108 106 103 101 99 97 94 91 88 85 83 80 78 75 73 70 68 67 66 64 63 62 61 60 59 58 58 58 57 57 57 57 57 57 57 57 57 58 58 59 59 59 60 61 61 62 62 63 63 64 64 65 66 66 67 68 68 69 70 71 71
121 121 120 120 120 119 120 120 120 120 120 120 120 119 119 118 117 116 115 113 112 110 109 108 106 104 102 100 98 95 93 90 88 85 83 80 77 75 73 70 68 67 66 65 63 62 61 60 60 59 58 58 57 57 56 56 56 57 57 57 57 57 58 59 59 60 61 61 62 63 63 64 64 65 66 66 67 67 68 68 69 70 70 71 72 73
121 121 121 120 120 120 120 121 121 121 121 120 119 118 117 116 115 114 113 111 109 107 106 104 103 101 98 96 94 91 88 86 84 82 80 76 74 72 71 68 67 65 64 64 63 62 61 60 60 59 58 58 57 57 56 56 56 57 57 57 58 58 59 59 60 61 62 62 63 64 65 65 66 67 67 67 68 68 69 69 70 71 72 72 73 74
121 121 121 121 121 121 121 121 121 121 120 119 117 116 115 113 112 111 109 108 106 104 102 101 99 96 94 92 89 87 84 82 80 78 76 73 71 70 69 67 65 64 64 63 63 63 62 61 60 59 58 58 57 57 57 57 57 57 58 58 58 59 60 60 61 62 63 64 64 65 66 67 67 68 69 69 69 70 70 71 71 72 73 74 74 75
122 121 121 121 121 121 121 121 120 119 118 116 115 113 112 110 109 107 106 104 102 100 98 96 94 92 90 87 85 83 81 79 77 75 72 70 69 68 67 65 64 64 63 63 63 63 63 62 61 60 59 59 58 58 58 58 58 58 59 59 59 60 61 61 62 63 64 65 66 67 67 68 69 69 70 70 71 71 71 72 72 73 73 74 75 76
122 122 122 121 121 120 120 119 118 117 115 113 112 110 109 107 105 104 102 100 98 96 94 92 90 88 85 83 81 79 78 76 74 72 69 67 67 66 65 64 64 63 63 63 63 63 64 63 62 61 60 59 59 59 59 59 59 59 60 60 61 61 62 63 64 64 65 66 67 68 69 69 70 71 71 72 72 72 72 73 73 74 74 75 76 77
122 121 121 120 120 119 118 116 115 113 112 110 108 107 105 103 102 100 97 95 93 91 89 87 85 83 81 79 77 76 74 72 71 69 67 65 65 65 64 63 63 63 63 62 62 63 64 64 64 63 62 61 61 60 60 60 60 61 61 62 62 63 63 64 65 66 67 67 68 69 70 71 71 72 72 73 73 73 73 73 74 74 75 76 76 77
121 120 119 118 117 116 114 113 111 110 108 106 105 103 101 99 97 95 93 91 89 87 84 83 81 79 78 76 74 72 71 69 68 66 65 64 64 64 63 63 63 63 63 62 62 63 63 64 65 65 64 63 63 62 62 62 62 62 63 63 64 64 65 65 66 67 68 69 69 70 71 71 72 73 73 73 74 74 74 74 74 75 75 76 77 77
118 117 116 115 114 112 111 109 107 106 104 102 100 98 97 94 92 90 88 86 84 82 81 79 77 75 74 72 71 69 68 66 65 64 63 63 63 63 63 63 63 63 63 63 63 63 63 64 65 65 66 66 65 65 64 64 64 64 64 65 66 66 67 67 67 68 69 70 70 71 72 72 73 73 74 74 75 75 75 75 75 75 75 76 76 77
115 114 112 111 110 108 107 105 103 101 100 98 96 94 92 90 88 86 84 82 80 79 77 75 74 72 70 69 67 66 65 64 64 63 62 62 62 63 63 63 63 63 63 63 63 63 64 64 65 65 66 67 67 67 67 66 66 66 67 67 67 68 68 68 69 69 70 71 71 72 73 73 74 74 75 75 76 76 76 76 76 76 76 76 76 77
111 110 108 107 105 104 102 100 99 97 95 93 91 89 87 85 83 81 80 78 76 75 74 72 71 69 67 66 65 64 63 63 62 62 62 62 62 62 63 63 63 63 63 63 64 64 64 65 66 66 67 68 69 69 69 68 68 69 69 69 69 70 70 70 70 71 71 72 73 73 74 74 75 76 76 77 77 77 77 77 77 77 77 76 76 76
107 106 104 102 101 99 98 96 94 92 90 87 86 84 82 80 78 77 76 74 73 71 70 69 67 66 65 63 63 62 62 62 62 62 62 62 62 62 62 63 63 63 63 64 64 64 65 66 67 67 68 69 70 71 71 71 71 71 71 71 71 71 71 71 71 72 72 73 74 74 75 76 76 77 77 78 78 78 78 78 78 77 77 77 77 77
102 101 100 98 96 94 92 90 88 86 84 82 81 79 78 76 74 73 72 71 69 68 67 65 64 63 62 61 61 61 61 61 61 61 61 62 62 62 62 63 63 63 63 64 65 65 66 67 68 69 70 70 71 72 72 73 73 73 73 73 73 73 73 73 73 73 74 75 75 76 76 77 78 78 79 79 79 79 79 79 79 78 78 78 78 77
98 96 94 93 91 89 87 85 83 81 79 78 76 75 73 72 71 69 68 67 66 65 63 63 62 61 61 60 60 60 61 61 61 61 61 62 62 62 62 63 64 64 64 65 65 66 67 68 69 70 71 72 73 73 74 74 74 74 75 75 75 75 75 75 75 75 75 76 77 77 78 78 79 79 80 80 80 81 81 80 80 79 79 79 79 78
92 91 89 87 85 83 81 80 78 77 75 74 72 71 69 68 67 66 65 63 62 62 61 60 60 60 60 60 60 60 60 61 61 61 61 62 62 62 63 63 64 65 65 66 66 67 68 69 70 71 72 73 74 75 75 75 75 75 76 76 77 78 77 77 77 77 77 78 78 79 80 80 81 81 82 82 82 82 82 82 81 81 80 80 80 79
87 85 83 81 80 78 76 75 74 72 71 69 68 67 65 64 63 62 61 61 60 59 59 59 59 59 60 60 60 60 60 61 61 61 62 62 62 63 63 64 65 66 67 67 68 69 69 70 71 72 73 74 74 75 76 76 76 76 76 77 78 79 79 79 79 79 80 80 80 81 81 82 83 83 83 83 83 83 83 83 82 82 81 80 80 80
81 79 78 76 75 73 72 70 69 68 66 65 64 63 62 61 60 59 59 58 58 58 58 59 59 59 60 60 60 60 60 61 61 62 62 63 63 64 64 65 66 67 68 69 70 70 71 72 72 73 74 74 75 76 77 77 77 77 77 78 79 80 81 81 81 81 81 82 82 82 83 83 84 84 85 85 85 84 84 84 83 83 82 81 81 80
75 74 72 71 70 68 67 66 64 63 62 61 60 59 59 58 58 57 57 57 58 58 58 59 59 59 60 60 60 60 60 61 61 62 62 63 64 65 65 66 67 68 69 70 71 72 72 73 73 74 75 75 76 77 78 78 79 79 79 79 79 81 82 82 82 82 83 84 84 84 84 85 85 85 86 86 86 86 85 85 84 83 83 82 81 80
70 69 68 66 65 64 63 61 60 59 59 58 57 57 57 57 56 56 57 57 57 58 58 59 59 59 60 60 61 61 61 61 62 62 63 64 65 66 67 68 68 69 70 71 72 73 74 74 75 75 76 76 77 78 79 79 80 80 80 80 80 81 82 83 83 84 84 85 85 85 85 85 86 86 86 86 87 87 86 86 85 84 83 82 81 80
65 64 63 62 60 59 58 58 57 57 56 56 55 55 56 56 56 56 56 57 57 58 58 59 59 60 60 61 61 61 62 62 63 63 64 65 66 67 68 69 70 70 71 72 72 74 75 76 77 77 77 78 78 79 80 80 81 81 81 81 81 82 83 83 84 84 85 86 86 86 86 86 86 86 87 87 87 87 87 86 85 84 83 82 81 80
61 60 58 58 57 56 55 55 55 55 54 54 54 55 55 55 55 56 56 57 57 58 58 59 59 60 61 61 62 62 63 64 64 65 65 66 67 68 69 69 70 71 72 72 73 74 76 77 78 79 79 80 80 80 80 81 81 82 82 83 83 83 84 84 84 85 85 86 86 86 86 86 86 86 87 87 87 87 87 86 85 84 83 81 80 79
57 56 55 54 54 54 53 53 53 53 53 53 54 54 54 55 55 56 56 57 57 58 59 59 60 60 61 62 63 64 65 65 66 67 67 68 68 69 69 70 70 71 72 73 75 76 77 78 79 80 80 81 81 82 82 82 82 83 83 84 84 84 85 85 85 85 85 85 86 86 86 85 85 86 86 86 86 86 86 85 84 83 82 81 79 78
54 53 53 52 52 52 52 52 52 52 53 53 53 54 54 54 55 56 56 57 58 58 59 60 61 62 63 63 64 65 66 67 68 68 68 68 69 69 70 70 71 72 73 74 76 77 78 79 79 80 80 81 82 83 83 83 83 84 84 84 84 85 85 85 85 85 85 85 85 85 85 85 85 84 84 84 85 85 84 84 83 82 80 79 78 77
52 51 51 51 51 51 51 51 51 52 52 52 53 53 54 54 55 56 57 57 58 59 60 61 62 63 64 65 66 67 67 68 69 69 69 69 70 70 71 72 73 73 74 75 76 77 78 79 80 80 80 81 82 83 84 84 84 84 84 84 84 84 84 84 85 84 85 85 85 84 84 83 83 82 82 82 83 83 82 82 82 80 79 77 76 75
50 50 50 50 50 50 50 51 51 51 52 52 53 53 54 55 56 56 57 58 59 60 61 62 63 65 66 67 67 68 68 69 69 70 70 71 71 72 73 73 74 75 76 77 78 79 80 81 81 81 81 81 82 83 84 85 84 84 84 84 83 83 84 84 84 83 83 84 83 83 82 81 81 80 80 80 80 80 80 80 79 78 77 76 75 74
48 48 48 49 49 49 50 50 51 51 52 52 53 54 55 56 56 57 58 59 60 61 63 64 64 66 67 67 68 68 69 69 70 71 72 72 73 73 74 75 76 77 77 78 79 80 81 82 83 84 83 82 82 82 83 84 84 84 84 83 83 82 83 83 82 82 82 82 82 81 81 80 79 78 77 77 77 77 77 77 77 76 75 74 74 74
Wind_Direction
270 270 271 272 273 273 274 275 276 276 277 278 278 279 280 281 281 282 282 283 283 284 285 285 286 287 288 289 289 290 291 292 292 293 294 294 295 295 295 295 296 296 296 296 296 296 296 295 295 295 295 294 294 293 293 292 292 291 291 291 290 290 290 290 289 289 289 288 288 288 287 287 286 286 286 286 285 285 285 284 284 284 284 283 283 283
270 270 271 272 273 273 274 275 276 276 277 278 278 279 280 280 281 282 282 283 283 284 285 286 286 287 288 289 290 290 291 292 292 293 294 294 295 295 295 295 295 295 295 295 295 295 295 295 295 295 294 294 294 293 293 292 292 291 291 290 290 290 290 289 289 289 288 288 287 287 286 286 286 286 285 285 285 285 284 284 284 283 283 283 283 282
270 270 271 272 273 273 274 275 276 276 277 277 278 279 280 280 281 281 282 283 283 284 285 286 287 287 288 289 290 290 291 292 292 293 294 294 294 295 295 295 295 295 295 295 295 295 295 295 295 295 294 294 294 293 293 292 291 291 290 290 290 290 289 289 288 288 287 287 287 286 286 285 285 285 285 284 284 284 284 283 283 283 283 283 282 282
270 270 271 272 273 273 274 275 275 276 277 277 278 279 279 280 280 281 282 283 283 284 285 286 287 288 288 289 290 291 291 292 293 293 293 294 294 294 294 294 294 294 294 294 294 294 294 295 295 294 294 294 293 293 292 292 291 291 290 290 290 289 289 288 288 287 287 286 286 285 285 285 285 284 284 284 284 284 283 283 283 283 283 282 282 282
270 270 271 272 272 273 274 274 275 276 276 277 278 278 279 280 280 281 282 283 284 285 285 286 287 288 289 289 290 291 291 292 292 293 293 293 294 294 294 294 294 294 294 294 294 294 294 295 295 295 294 294 293 293 292 292 291 291 290 290 289 289 288 288 287 287 286 286 285 285 285 284 284 284 284 284 283 283 283 283 283 282 282 282 282 282
269 270 271 271 272 273 273 274 275 276 276 277 278 278 279 280 281 281 282 283 284 285 286 287 287 288 289 289 290 291 291 292 292 293 293 293 293 293 293 294 294 294 294 294 294 294 295 295 295 295 294 294 293 293 292 291 291 290 290 290 289 289 288 287 287 286 286 286 285 285 284 284 284 284 284 283 283 283 283 283 282 282 282 282 282 281
269 270 271 271 272 273 273 274 275 276 276 277 278 279 279 280 281 282 283 284 284 285 286 287 288 288 289 290 290 291 291 292 292 292 293 293 293 293 293 293 293 293 293 294 294 294 295 295 295 294 294 293 293 292 292 291 291 290 290 289 289 288 288 287 287 286 286 285 285 285 284 284 284 284 283 283 283 283 283 282 282 282 282 281 281 281
270 270 271 272 272 273 274 275 275 276 277 278 278 279 280 281 282 282 283 284 285 285 286 287 288 288 289 290 290 291 291 291 292 292 292 292 292 292 293 293 293 293 293 294 294 295 295 295 295 294 294 293 293 292 292 291 291 290 290 289 289 288 287 287 287 286 286 286 285 285 285 284 284 284 283 283 283 283 282 282 282 282 281 281 281 281
270 271 272 272 273 274 275 275 276 277 277 278 279 280 280 281 282 283 283 284 285 286 286 287 288 288 289 290 290 290 291 291 291 292 292 292 292 292 292 292 293 293 294 294 295 295 295 295 295 294 294 293 293 292 291 291 290 290 289 289 288 288 287 287 287 286 286 286 285 285 285 284 284 284 284 283 283 283 282 282 282 281 281 281 281 280
271 272 273 273 274 275 275 276 277 277 278 279 279 280 281 281 282 283 284 284 285 286 287 287 288 289 289 290 290 290 291 291 291 291 291 291 292 292 292 293 293 294 294 295 295 295 295 295 295 294 294 293 293 292 292 291 291 290 289 289 289 288 288 287 287 287 286 286 286 285 285 285 284 284 284 283 283 283 282 282 282 281 281 280 280 280
272 273 273 274 274 275 276 276 277 278 278 279 279 280 281 281 282 283 284 285 285 286 287 287 288 288 289 290 290 290 290 291 291 291 291 291 291 292 292 293 294 294 295 295 296 296 296 296 295 295 294 294 293 292 292 291 291 290 290 289 289 288 288 288 287 287 286 286 286 285 285 285 284 284 284 283 283 282 282 282 281 281 281 280 280 279
272 273 274 274 275 275 276 276 277 278 278 279 280 280 281 282 282 283 284 285 285 286 287 288 288 289 289 290 290 290 290 291 291 291 291 291 292 292 293 294 294 295 295 296 296 296 296 296 296 295 294 294 293 293 292 291 291 290 290 290 289 289 288 288 287 287 287 286 286 285 285 284 284 284 283 283 283 282 282 281 281 281 280 280 280 279
273 273 274 274 275 275 276 277 277 278 278 279 279 280 281 282 283 284 284 285 286 287 287 288 288 289 289 289 290 290 290 290 291 291 291 292 292 293 294 295 295 296 296 297 297 297 297 297 296 295 295 294 293 293 292 292 291 291 290 290 289 289 288 288 287 287 286 286 285 285 285 284 284 284 283 283 282 282 282 281 281 281 280 280 280 279
273 273 274 274 275 275 276 276 277 278 278 279 280 281 282 283 284 285 285 286 286 287 288 288 289 289 289 289 290 290 290 291 291 292 292 293 293 294 295 296 296 297 297 298 298 298 297 297 296 296 295 294 294 293 292 292 291 291 290 290 289 288 288 287 287 286 286 285 285 285 284 284 283 283 283 283 282 282 282 281 281 281 280 280 280 279
273 273 274 274 275 275 276 277 277 278 279 280 281 282 283 284 284 285 286 286 287 287 288 289 289 289 289 290 290 290 291 291 292 293 293 294 294 295 296 297 297 298 298 298 298 298 298 297 296 296 295 294 294 293 292 292 291 290 290 289 289 288 288 287 286 286 286 285 285 284 284 283 283 283 283 282 282 282 282 281 281 281 280 280 280 279
273 274 274 275 276 276 277 278 278 279 280 281 282 283 284 284 285 286 286 287 287 288 289 289 290 290 290 290 290 291 292 293 293 294 294 295 295 296 297 298 298 298 299 299 298 298 297 297 296 295 295 294 293 293 292 291 291 290 289 289 288 288 287 287 286 286 285 285 284 284 284 283 283 283 283 282 282 282 282 281 281 281 280 280 279 279
274 275 275 276 277 277 278 279 279 280 281 282 283 283 284 285 286 286 287 287 288 289 289 290 290 291 291 291 291 292 293 294 294 295 295 296 296 297 297 298 299 299 299 299 298 298 297 296 296 295 294 293 293 292 291 291 290 289 289 288 288 287 287 286 286 285 285 284 284 284 284 283 283 283 283 282 282 282 282 281 281 281 280 280 279 279
275 276 276 277 277 278 279 279 280 281 282 282 283 284 285 285 286 287 287 288 289 289 290 290 291 291 292 293 293 293 293 294 295 296 296 297 297 297 298 298 299 299 299 298 298 297 296 296 295 294 293 293 292 291 290 290 289 289 288 287 287 287 286 286 285 285 285 284 284 284 284 283 283 283 283 282 282 282 282 281 281 281 280 280 280 279
276 276 277 277 278 279 279 280 281 281 282 283 284 284 285 286 286 287 288 288 289 290 290 291 292 292 293 293 294 294 294 295 295 296 296 297 297 298 298 298 298 298 298 297 297 296 295 295 294 293 292 292 291 290 290 289 288 288 287 287 287 286 286 286 285 285 285 285 284 284 284 284 283 283 283 283 282 282 282 282 281 281 281 280 280 280
276 277 277 278 278 279 280 280 281 282 283 283 284 285 286 286 287 288 288 289 290 290 291 292 292 293 293 294 294 294 295 295 296 296 296 297 297 298 298 298 298 297 297 296 296 295 294 294 293 292 291 291 290 289 289 288 288 287 287 287 286 286 286 286 285 285 285 285 285 284 284 284 284 283 283 283 283 282 282 282 282 281 281 281 281 280
276 277 277 278 278 279 280 281 281 282 283 284 285 285 286 287 287 288 289 289 290 291 292 292 293 293 293 294 294 294 295 295 296 296 296 297 297 297 297 297 296 296 296 295 294 293 293 292 291 291 290 289 289 288 288 287 287 287 286 286 286 286 286 286 285 285 285 285 285 285 284 284 284 283 283 283 283 283 282 282 282 282 282 281 281 281
276 277 277 278 278 279 280 281 282 283 283 284 285 286 286 287 288 288 289 290 291 291 292 292 293 293 293 294 294 294 294 295 295 296 296 296 296 296 296 296 295 295 294 293 293 292 291 291 290 289 289 288 288 287 287 287 286 286 286 286 286 286 286 286 285 285 285 285 285 284 284 284 284 283 283 283 283 283 282 282 282 282 282 281 281 281
276 276 277 278 279 280 280 281 282 283 284 284 285 286 286 287 288 289 289 290 291 291 291 292 292 292 293 293 293 294 294 294 295 295 295 295 295 295 295 294 294 293 292 292 291 290 290 289 288 288 287 287 287 286 286 286 286 286 286 286 286 286 286 285 285 285 285 285 284 284 284 284 283 283 283 283 283 283 282 282 282 282 282 281 281 281
276 276 277 278 279 280 281 282 283 283 284 285 285 286 287 287 288 289 289 290 290 291 291 291 292 292 292 293 293 293 293 294 294 294 294 294 294 293 293 293 292 291 291 290 289 289 288 287 287 286 286 286 285 285 285 285 285 285 285 285 286 286 285 285 285 285 285 284 284 284 284 283 283 283 283 283 282 282 282 282 282 282 282 281 281 281
276 277 278 279 279 280 281 282 283 283 284 285 285 286 287 287 288 288 289 289 290 290 290 291 291 292 292 292 293 293 293 293 293 293 293 293 292 292 291 291 290 290 289 288 288 287 286 286 285 285 284 284 284 284 284 284 285 285 285 285 285 285 285 285 285 285 284 284 284 283 283 283 283 283 282 282 282 282 282 282 281 281 281 281 281 281
276 277 278 279 280 281 281 282 283 283 284 285 285 286 287 287 288 288 289 289 289 289 290 290 291 291 291 292 292 292 292 292 292 292 291 291 291 290 290 289 288 288 287 286 286 285 284 284 283 283 283 283 283 283 283 283 284 284 284 284 284 284 284 284 284 284 283 283 283 283 283 282 282 282 282 281 281 281 281 281 281 281 281 281 281 281
277 278 278 279 280 281 281 282 283 283 284 284 285 286 286 287 287 288 288 288 289 289 290 290 290 290 291 291 291 291 291 291 291 290 290 290 289 289 288 287 287 286 285 285 284 283 283 282 282 282 281 281 281 281 282 282 282 282 282 282 283 283 283 283 282 282 282 282 282 282 282 281 281 281 281 281 281 281 281 281 281 281 281 281 281 281
277 278 278 279 280 281 281 282 282 283 284 284 285 285 286 286 287 287 287 288 288 288 289 289 289 289 290 290 289 289 289 289 289 289 288 288 288 287 287 286 285 284 284 283 282 282 281 281 281 280 280 280 280 280 280 280 280 281 281 281 281 281 281 281 281 281 281 281 281 281 281 281 280 280 280 280 280 280 280 280 280 280 281 281 281 281
277 278 278 279 280 281 281 282 282 283 283 284 284 285 285 286 286 286 287 287 287 288 288 288 288 288 288 288 288 288 288 287 287 287 287 287 286 286 285 285 284 283 283 282 282 281 281 280 280 280 280 280 280 280 280 280 280 280 280 280 280 280 280 280 280 280 280 280 280 280 280 280 280 280 280 280 280 280 280 280 280 281 281 281 281 281
277 278 278 279 280 280 281 282 282 283 283 283 284 284 285 285 285 286 286 286 287 287 287 287 287 287 287 287 287 286 286 286 286 286 285 285 285 284 284 283 283 282 282 282 282 282 281 281 280 280 280 280 280 280 280 280 280 280 280 280 280 280 280 280 280 280 280 280 280 280 280 280 280 280 280 280 280 280 280 280 280 280 281 281 281 281
277 278 279 279 280 280 281 281 282 282 283 283 283 284 284 284 285 285 285 286 286 286 286 286 286 286 285 285 285 285 285 284 284 284 284 283 283 283 283 282 282 282 282 282 282 282 282 282 281 281 280 280 280 280 280 280 280 280 280 280 280 280 280 280 280 280 280 280 280 280 280 280 280 280 280 280 280 280 280 280 280 280 280 280 280 280
277 278 279 279 280 280 281 281 281 282 282 283 283 283 284 284 284 284 284 284 284 284 284 284 284 284 284 284 283 283 283 283 283 282 282 282 281 281 281 281 281 281 281 282 282 282 283 283 283 282 282 281 281 281 281 281 281 281 281 281 280 280 280 280 280 280 280 280 280 280 280 281 281 281 281 280 280 280 280 280 280 280 280 280 280 280
277 278 278 279 279 280 280 280 281 281 282 282 282 283 283 283 283 283 283 283 283 283 283 283 283 282 282 282 282 282 281 281 281 281 281 280 280 280 280 280 280 281 281 281 282 282 283 284 284 284 284 283 283 282 282 282 281 281 281 281 281 281 281 281 281 281 281 281 281 281 281 281 281 281 281 281 281 281 281 280 280 280 280 280 280 280
277 278 278 278 279 279 280 280 280 281 281 282 282 282 282 282 282 282 282 282 282 282 281 281 281 281 281 281 280 280 280 280 279 279 279 279 279 279 279 280 280 280 281 282 282 282 283 284 284 285 285 285 284 284 284 283 283 283 283 283 282 282 282 282 282 282 282 283 283 283 283 283 283 283 282 282 282 281 281 281 281 280 280 280 280 280
277 277 278 278 278 279 279 280 280 280 281 281 281 281 281 281 281 281 281 281 281 280 280 280 280 279 279 279 279 278 278 278 278 278 278 278 278 278 279 279 280 281 281 282 283 283 284 284 285 285 286 286 286 285 285 285 285 284 284 284 284 284 284 284 284 284 284 284 285 285 285 284 284 284 284 284 283 283 283 282 282 281 281 281 281 281
276 277 277 277 278 278 279 279 280 280 280 280 280 280 280 280 280 280 280 279 279 279 279 279 278 278 278 277 277 277 277 277 277 277 277 277 277 278 279 280 280 281 282 283 283 284 285 285 285 286 286 287 287 286 286 286 286 285 285 285 285 285 285 285 286 286 286 286 286 286 286 286 286 286 286 285 285 285 284 284 284 283 283 282 282 282
276 276 277 277 277 278 278 279 279 279 279 279 279 279 279 279 279 278 278 278 278 278 277 277 277 277 276 276 276 275 276 276 276 276 276 277 277 278 279 280 281 282 282 283 284 285 285 286 286 286 287 287 287 287 287 287 287 287 287 287 287 287 287 287 287 287 288 288 288 288 288 288 288 287 287 287 287 286 286 285 285 285 285 284 284 284
275 276 276 277 277 277 278 278 278 278 278 278 278 278 278 277 277 277 277 277 276 276 276 276 275 275 275 275 275 275 275 275 275 276 276 277 278 279 280 281 281 282 283 284 284 285 286 286 287 287 287 287 287 287 288 288 288 288 288 288 288 289 289 289 289 289 289 289 289 289 289 289 289 289 289 288 288 288 288 287 287 286 286 286 286 286
275 275 276 276 276 277 277 277 277 277 277 277 277 277 276 276 276 276 275 275 275 274 274 274 274 274 274 274 274 274 274 275 275 276 277 278 278 279 280 281 282 283 283 284 284 285 286 286 286 287 287 287 288 288 288 288 289 289 290 290 290 290 290 290 290 291 291 291 291 291 290 290 290 290 290 290 290 289 289 289 289 288 288 288 288 288
275 275 275 275 276 276 276 276 276 276 276 276 275 275 275 275 274 274 274 273 273 273 273 273 272 272 273 273 273 274 274 275 276 277 278 278 279 280 281 282 282 283 284 284 285 285 285 286 286 286 287 287 288 288 289 289 289 290 291 291 292 292 292 292 292 292 292 292 292 292 292 292 292 291 291 291 291 291 290 290 290 290 290 290 290 290
274 274 274 274 275 275 275 275 274 274 274 274 274 274 273 273 273 272 272 272 272 271 271 271 272 272 272 272 273 274 275 275 276 277 278 279 280 281 282 282 283 284 284 285 285 285 285 285 286 286 286 287 288 288 289 289 290 291 291 292 292 292 293 293 293 293 293 293 293 293 293 293 293 292 292 292 292 292 292 292 291 291 291 291 291 291
273 273 273 273 273 273 273 273 273 273 273 272 272 272 271 271 271 271 270 270 270 270 270 271 271 271 272 273 273 274 275 276 277 278 279 280 281 282 282 283 283 284 284 284 285 285 285 285 286 286 287 288 288 289 290 290 290 291 291 292 292 292 293 293 293 293 293 293 293 293 293 293 293 293 293 293 293 293 293 292 292 292 292 292 292 292
272 272 272 272 272 272 272 272 271 271 271 271 270 270 270 270 270 269 269 269 270 270 270 271 271 272 273 273 274 275 276 277 278 279 279 280 281 282 282 283 283 283 284 284 285 285 285 286 286 287 288 288 289 290 290 290 291 291 291 291 292 292 293 293 293 293 293 293 293 293 293 293 293 294 294 294 294 293 293 293 293 292 292 292 292 292
270 270 270 270 270 270 270 270 269 269 269 269 268 268 268 268 268 268 269 269 269 270 270 271 272 273 274 274 275 276 277 277 278 279 280 281 281 282 282 282 283 283 284 284 285 286 286 287 288 288 289 289 289 290 290 290 291 291 291 291 292 292 292 293 293 293 293 293 293 293 293 294 294 294 294 294 294 294 293 293 293 293 293 293 293 293
268 268 268 268 268 268 268 268 268 268 267 267 267 267 267 268 268 268 268 269 270 270 271 272 273 274 275 275 276 277 278 278 279 279 280 280 281 281 282 282 283 283 284 285 286 287 288 288 289 289 289 289 290 290 290 290 291 291 291 292 292 292 292 292 292 293 293 293 293 293 293 294 294 294 294 294 294 294 293 293 293 293 293 293 293 293
266 266 266 266 266 266 266 266 266 266 266 266 266 267 267 267 268 269 269 270 271 272 272 273 274 275 276 277 278 278 279 279 279 279 280 280 280 281 281 282 283 284 285 286 287 288 288 289 289 289 289 290 290 290 290 290 291 291 291 292 292 292 292 292 292 292 292 293 293 293 293 294 294 294 294 294 294 294 293 293 293 293 293 293 293 293
264 264 264 264 264 264 264 265 265 265 265 266 266 267 267 268 269 270 270 271 272 273 274 275 276 276 277 278 279 279 279 279 279 279 279 280 280 281 282 283 285 286 286 287 288 288 288 288 288 289 289 290 290 290 290 291 291 291 291 291 292 292 292 292 292 292 293 293 293 293 293 294 294 294 294 293 293 293 293 293 293 293 293 293 293 293
261 262 262 262 262 263 263 264 264 265 265 266 267 268 268 269 270 271 272 273 274 274 275 276 277 277 278 278 278 279 279 279 279 280 280 281 282 283 284 285 286 286 287 287 287 287 287 288 288 288 289 289 290 290 290 291 291 291 291 291 291 292 292 292 292 293 293 293 293 293 293 293 293 293 293 293 293 293 293 293 293 293 293 293 293 293
260 260 261 261 262 262 263 264 265 265 266 267 268 269 270 270 271 272 273 274 275 275 276 276 277 277 277 278 278 278 279 279 280 281 282 283 284 285 286 286 286 287 287 287 287 287 287 288 288 288 288 289 289 290 290 290 290 290 291 291 291 292 292 292 293 293 293 293 293 293 293 293 293 293 293 293 293 293 293 293 293 293 293 293 293 293
260 260 261 261 262 263 264 264 265 266 267 268 269 270 271 271 272 272 273 274 274 275 275 276 276 277 277 278 278 279 280 281 282 283 284 285 286 286 286 287 287 287 287 287 288 288 288 289 289 289 289 289 289 290 290 290 290 291 291 291 292 292 292 293 293 293 293 293 293 293 293 293 293 293 293 293 293 293 293 293 293 293 293 293 293 293
260 261 261 262 263 263 264 265 266 267 268 269 269 270 271 271 272 272 273 273 274 274 275 276 276 277 278 279 280 281 282 283 284 285 285 286 286 287 287 287 287 288 288 289 289 289 290 290 290 290 290 290 290 290 290 291 291 291 292 292 292 292 293 293 293 293 293 293 293 293 293 293 293 293 293 293 293 293 293 293 293 293 293 293 293 293
Height
10617 10616 10616 10616 10615 10613 10612 10611 10611 10611 10610 10608 10608 10608 10607 10606 10605 10604 10604 10603 10602 10601 10600 10599 10599 10597 10597 10596 10595 10594 10593 10592 10591 10590 10589 10587 10586 10584 10582 10580 10577 10576 10573 10571 10569 10566 10564 10562 10560 10558 10556 10554 10552 10550 10548 10546 10544 10542 10541 10539 10537 10536 10535 10534 10533 10532 10531 10531 10530 10529 10529 10528 10527 10527 10527 10527 10527 10527 10526 10526 10526 10526 10526 10526 10526 10526
10613 10612 10611 10611 10610 10609 10607 10605 10606 10606 10605 10604 10602 10602 10602 10601 10599 10598 10597 10597 10596 10595 10594 10593 10592 10591 10591 10590 10589 10588 10587 10586 10584 10583 10582 10580 10579 10577 10574 10572 10571 10568 10566 10563 10561 10559 10556 10554 10552 10551 10548 10546 10544 10542 10541 10539 10537 10535 10534 10532 10531 10530 10529 10527 10527 10526 10525 10524 10523 10522 10522 10522 10521 10521 10521 10521 10521 10520 10520 10520 10520 10520 10519 10520 10520 10520
10607 10607 10606 10605 10604 10604 10602 10600 10600 10601 10601 10599 10597 10597 10597 10596 10594 10592 10591 10591 10590 10589 10588 10587 10587 10586 10584 10584 10582 10582 10581 10579 10578 10576 10575 10573 10571 10569 10567 10565 10563 10561 10558 10556 10553 10551 10549 10547 10545 10543 10541 10539 10537 10535 10533 10531 10529 10528 10526 10525 10524 10523 10522 10521 10520 10519 10518 10517 10517 10516 10516 10515 10515 10514 10514 10514 10514 10514 10514 10514 10514 10513 10513 10513 10514 10514
10602 10601 10600 10599 10599 10598 10597 10596 10595 10595 10594 10594 10593 10592 10591 10590 10589 10587 10586 10586 10584 10584 10582 10581 10581 10580 10579 10577 10576 10576 10574 10573 10571 10570 10568 10566 10564 10562 10560 10558 10556 10553 10551 10548 10546 10544 10541 10539 10537 10536 10533 10531 10529 10527 10526 10524 10522 10521 10519 10518 10517 10516 10515 10514 10513 10512 10512 10511 10511 10510 10509 10509 10509 10508 10508 10507 10507 10507 10507 10507 10507 10507 10507 10507 10507 10507
10596 10596 10594 10594 10593 10592 10591 10591 10590 10590 10589 10588 10587 10587 10586 10584 10583 10582 10581 10580 10579 10578 10577 10576 10575 10574 10573 10572 10570 10569 10568 10567 10565 10563 10561 10559 10557 10556 10553 10551 10548 10546 10543 10541 10538 10536 10534 10532 10530 10528 10526 10524 10522 10520 10518 10516 10515 10514 10512 10511 10510 10509 10508 10507 10506 10506 10505 10504 10504 10504 10503 10502 10502 10502 10502 10501 10501 10501 10501 10501 10501 10501 10501 10501 10501 10501
10589 10590 10589 10589 10588 10587 10586 10585 10585 10584 10583 10582 10581 10581 10580 10579 10578 10577 10576 10574 10574 10572 10571 10570 10569 10568 10567 10566 10564 10563 10562 10560 10558 10556 10554 10552 10551 10548 10546 10543 10541 10538 10536 10533 10531 10529 10527 10525 10523 10521 10519 10516 10514 10512 10511 10509 10507 10506 10505 10504 10503 10502 10501 10500 10499 10499 10498 10497 10497 10497 10497 10496 10496 10496 10495 10495 10495 10495 10495 10495 10495 10495 10495 10494 10494 10495
10583 10584 10584 10584 10582 10581 10581 10580 10579 10578 10577 10576 10575 10574 10574 10573 10572 10571 10571 10569 10568 10567 10566 10564 10563 10562 10561 10560 10559 10557 10555 10554 10552 10550 10547 10546 10543 10541 10539 10536 10533 10531 10528 10526 10524 10522 10520 10517 10516 10513 10511 10509 10507 10506 10504 10502 10501 10499 10498 10497 10496 10495 10494 10493 10492 10492 10491 10491 10491 10491 10490 10489 10489 10489 10489 10489 10489 10489 10489 10489 10489 10489 10489 10489 10489 10489
10577 10577 10577 10577 10577 10576 10574 10574 10574 10573 10572 10571 10569 10567 10567 10566 10566 10566 10565 10564 10563 10562 10561 10559 10557 10556 10554 10554 10553 10551 10549 10547 10544 10542 10541 10538 10536 10534 10531 10529 10526 10523 10521 10519 10517 10515 10513 10511 10508 10506 10504 10502 10500 10498 10496 10495 10494 10492 10491 10491 10489 10489 10487 10487 10486 10486 10485 10484 10484 10484 10484 10483 10483 10482 10482 10482 10482 10482 10482 10482 10482 10482 10482 10482 10482 10482
10572 10571 10571 10571 10571 10570 10569 10567 10566 10566 10567 10566 10564 10562 10561 10560 10559 10559 10558 10558 10557 10556 10556 10554 10552 10549 10547 10547 10546 10545 10542 10540 10537 10535 10533 10531 10529 10526 10523 10521 10519 10516 10514 10512 10511 10508 10506 10503 10501 10499 10496 10494 10492 10491 10489 10488 10487 10486 10484 10484 10482 10482 10481 10480 10479 10479 10479 10478 10477 10477 10477 10477 10476 10476 10476 10476 10476 10476 10476 10476 10476 10476 10476 10476 10476 10476
10566 10566 10565 10564 10564 10564 10564 10562 10559 10559 10559 10560 10559 10557 10556 10555 10554 10552 10551 10550 10550 10550 10550 10549 10547 10544 10542 10540 10539 10537 10536 10533 10530 10527 10526 10524 10522 10519 10516 10514 10511 10509 10507 10506 10503 10501 10498 10496 10494 10491 10489 10487 10486 10484 10482 10481 10480 10479 10478 10477 10476 10475 10474 10474 10473 10472 10472 10472 10471 10471 10471 10471 10470 10470 10470 10470 10469 10469 10469 10469 10470 10470 10470 10471 10471 10470
10559 10559 10559 10558 10557 10557 10557 10556 10554 10552 10552 10553 10552 10551 10549 10550 10550 10549 10547 10544 10542 10542 10542 10542 10540 10538 10537 10534 10532 10529 10527 10525 10522 10520 10518 10517 10515 10512 10510 10507 10504 10502 10501 10499 10496 10494 10491 10489 10486 10484 10482 10480 10479 10477 10476 10474 10473 10472 10471 10471 10470 10469 10468 10467 10467 10467 10466 10466 10466 10465 10464 10464 10464 10464 10464 10464 10464 10464 10464 10463 10464 10464 10464 10464 10464 10464
10553 10552 10552 10552 10551 10551 10550 10549 10548 10547 10547 10547 10546 10544 10542 10542 10543 10544 10543 10540 10537 10535 10535 10534 10532 10531 10530 10529 10526 10523 10519 10517 10514 10512 10511 10509 10507 10505 10503 10501 10498 10496 10494 10491 10489 10487 10484 10482 10479 10477 10475 10473 10472 10471 10469 10468 10467 10466 10465 10464 10464 10463 10462 10462 10461 10461 10460 10460 10459 10459 10459 10458 10458 10457 10457 10457 10457 10457 10457 10457 10457 10457 10457 10457 10457 10458
10547 10547 10546 10546 10545 10544 10543 10542 10542 10541 10540 10540 10539 10538 10536 10535 10536 10537 10536 10534 10531 10529 10529 10527 10526 10523 10522 10521 10520 10517 10514 10510 10507 10505 10504 10502 10501 10499 10496 10494 10491 10489 10487 10484 10482 10479 10477 10475 10472 10471 10469 10467 10466 10464 10463 10462 10461 10460 10459 10459 10457 10457 10456 10456 10456 10455 10454 10454 10454 10453 10453 10452 10452 10452 10452 10452 10452 10451 10451 10451 10451 10451 10451 10451 10451 10452
10541 10541 10541 10540 10539 10537 10537 10536 10536 10534 10533 10532 10532 10532 10531 10530 10529 10529 10529 10527 10524 10522 10522 10521 10519 10516 10514 10514 10512 10510 10507 10504 10501 10498 10497 10495 10494 10492 10491 10487 10484 10482 10480 10477 10475 10472 10471 10468 10466 10464 10462 10461 10459 10458 10457 10456 10455 10454 10454 10452 10452 10451 10451 10451 10450 10449 10449 10449 10448 10448 10447 10447 10447 10447 10446 10446 10446 10446 10446 10446 10446 10446 10446 10445 10446 10446
10534 10534 10534 10533 10532 10531 10531 10530 10529 10528 10527 10526 10526 10526 10526 10524 10523 10522 10522 10520 10517 10515 10514 10513 10511 10509 10507 10506 10505 10503 10501 10497 10494 10491 10489 10488 10487 10485 10484 10482 10478 10475 10473 10471 10469 10466 10464 10462 10460 10458 10456 10455 10454 10452 10451 10451 10449 10449 10448 10447 10447 10446 10446 10445 10444 10444 10444 10443 10443 10442 10442 10442 10442 10441 10441 10441 10441 10441 10440 10440 10440 10439 10439 10439 10439 10439
10528 10528 10527 10526 10524 10524 10523 10523 10523 10522 10521 10520 10520 10520 10519 10518 10516 10515 10514 10513 10511 10508 10507 10505 10503 10501 10499 10497 10496 10496 10494 10491 10487 10484 10482 10481 10479 10478 10477 10476 10472 10469 10466 10464 10462 10460 10457 10456 10454 10452 10451 10449 10448 10447 10446 10445 10444 10444 10443 10442 10442 10441 10441 10440 10439 10439 10439 10438 10438 10437 10437 10437 10437 10436 10436 10436 10436 10435 10435 10434 10434 10434 10434 10434 10433 10433
10521 10521 10521 10519 10518 10517 10516 10516 10517 10516 10516 10514 10514 10514 10513 10512 10511 10509 10507 10506 10504 10501 10499 10497 10496 10493 10491 10489 10487 10487 10487 10485 10481 10477 10475 10474 10472 10471 10470 10469 10467 10463 10461 10458 10456 10454 10452 10451 10449 10447 10446 10444 10443 10442 10441 10440 10439 10439 10437 10437 10437 10436 10436 10435 10434 10434 10434 10433 10433 10432 10432 10432 10432 10431 10431 10431 10431 10430 10429 10429 10429 10428 10427 10427 10427 10427
10514 10514 10514 10513 10511 10510 10509 10510 10510 10510 10509 10509 10509 10507 10507 10506 10504 10502 10501 10499 10497 10495 10492 10490 10488 10486 10484 10482 10480 10479 10479 10478 10476 10472 10469 10467 10466 10464 10463 10462 10461 10458 10455 10452 10451 10449 10447 10445 10444 10442 10441 10439 10438 10437 10436 10435 10434 10434 10433 10432 10432 10431 10431 10430 10430 10429 10429 10428 10428 10427 10427 10427 10427 10426 10426 10426 10425 10424 10424 10424 10423 10422 10422 10421 10421 10421
10507 10506 10507 10506 10505 10504 10503 10504 10504 10504 10504 10503 10502 10501 10501 10499 10497 10496 10494 10492 10490 10488 10486 10484 10481 10479 10477 10475 10473 10472 10471 10471 10469 10466 10463 10461 10459 10457 10457 10456 10454 10452 10450 10447 10445 10443 10442 10440 10439 10437 10436 10434 10434 10432 10431 10431 10429 10429 10428 10427 10427 10426 10426 10426 10425 10424 10424 10424 10423 10422 10422 10422 10421 10421 10421 10420 10420 10419 10419 10418 10417 10417 10416 10416 10415 10415
10500 10499 10499 10499 10499 10498 10497 10497 10497 10498 10499 10497 10496 10495 10494 10492 10490 10489 10487 10485 10483 10481 10479 10477 10474 10472 10470 10468 10467 10465 10464 10464 10463 10461 10457 10456 10453 10452 10451 10450 10449 10447 10444 10442 10440 10438 10437 10435 10434 10432 10431 10430 10429 10428 10427 10426 10425 10424 10424 10423 10422 10422 10421 10421 10421 10420 10419 10419 10418 10417 10417 10417 10416 10416 10416 10415 10414 10414 10413 10412 10412 10411 10411 10410 10409 10409
10494 10492 10492 10492 10493 10493 10492 10491 10491 10492 10492 10492 10490 10489 10486 10484 10483 10482 10480 10478 10477 10474 10472 10470 10467 10466 10463 10462 10461 10459 10458 10457 10456 10454 10452 10450 10448 10446 10444 10444 10443 10441 10439 10437 10436 10434 10432 10431 10429 10428 10427 10426 10424 10424 10422 10422 10421 10420 10419 10418 10417 10417 10417 10416 10416 10415 10414 10414 10413 10412 10412 10412 10411 10411 10410 10409 10409 10408 10407 10407 10406 10406 10405 10404 10403 10402
10487 10486 10486 10486 10487 10488 10487 10486 10485 10486 10486 10485 10484 10482 10479 10477 10476 10475 10472 10471 10470 10468 10466 10464 10461 10459 10457 10456 10454 10452 10452 10451 10451 10449 10446 10445 10442 10440 10439 10438 10437 10436 10434 10433 10431 10430 10428 10427 10425 10424 10423 10422 10421 10419 10418 10417 10416 10416 10415 10414 10413 10413 10412 10412 10411 10411 10410 10409 10409 10408 10407 10407 10406 10406 10405 10404 10404 10403 10402 10402 10401 10400 10399 10398 10397 10397
10482 10481 10481 10481 10481 10482 10481 10481 10480 10479 10479 10478 10477 10475 10473 10472 10471 10469 10467 10465 10464 10462 10459 10457 10456 10453 10452 10450 10448 10447 10446 10445 10444 10443 10441 10439 10437 10435 10434 10432 10431 10430 10429 10428 10427 10426 10424 10423 10421 10420 10419 10417 10416 10415 10414 10413 10412 10411 10411 10410 10409 10409 10408 10407 10406 10406 10405 10404 10404 10403 10402 10402 10401 10401 10400 10399 10399 10398 10397 10396 10396 10394 10393 10392 10391 10391
10476 10476 10476 10476 10476 10476 10476 10475 10474 10472 10472 10471 10469 10468 10467 10466 10464 10462 10461 10459 10457 10456 10454 10452 10450 10447 10446 10444 10442 10441 10439 10439 10438 10437 10435 10434 10432 10430 10429 10427 10426 10425 10424 10423 10422 10422 10420 10419 10417 10416 10415 10414 10412 10411 10410 10409 10408 10407 10406 10406 10405 10404 10403 10402 10402 10401 10401 10399 10399 10398 10397 10397 10396 10396 10395 10394 10394 10392 10392 10391 10390 10389 10388 10387 10386 10385
10470 10470 10470 10470 10470 10470 10470 10469 10467 10466 10465 10464 10462 10461 10460 10459 10457 10456 10454 10453 10451 10449 10447 10446 10444 10442 10439 10438 10436 10434 10432 10432 10431 10431 10429 10427 10426 10425 10424 10422 10421 10420 10418 10418 10417 10417 10416 10414 10414 10412 10412 10411 10409 10408 10407 10406 10404 10404 10402 10402 10401 10400 10399 10398 10397 10396 10396 10395 10394 10393 10392 10392 10391 10390 10389 10389 10388 10387 10387 10386 10385 10384 10382 10381 10380 10379
10464 10464 10464 10464 10464 10464 10463 10462 10461 10459 10458 10457 10456 10455 10454 10452 10451 10449 10447 10446 10444 10443 10442 10440 10437 10436 10434 10432 10431 10429 10427 10426 10425 10424 10423 10422 10421 10419 10418 10417 10417 10415 10414 10413 10412 10412 10411 10410 10409 10409 10408 10407 10406 10404 10404 10402 10401 10400 10399 10398 10397 10396 10395 10394 10393 10392 10391 10390 10389 10388 10387 10386 10386 10385 10384 10384 10383 10382 10381 10381 10379 10378 10377 10376 10374 10373
10458 10458 10458 10458 10458 10457 10457 10456 10454 10453 10452 10451 10449 10449 10447 10446 10445 10442 10441 10439 10437 10437 10436 10434 10431 10430 10428 10427 10425 10423 10421 10420 10419 10417 10417 10416 10415 10414 10412 10412 10412 10411 10409 10407 10407 10407 10407 10406 10405 10404 10404 10403 10402 10401 10400 10399 10397 10397 10396 10394 10394 10392 10391 10390 10389 10387 10387 10386 10384 10383 10382 10381 10381 10380 10379 10378 10377 10377 10376 10376 10374 10373 10372 10370 10369 10367
10452 10452 10452 10452 10451 10451 10450 10449 10447 10446 10445 10444 10443 10442 10441 10440 10439 10436 10434 10432 10432 10431 10429 10427 10426 10424 10422 10421 10419 10417 10416 10414 10412 10411 10411 10411 10409 10408 10407 10407 10406 10405 10404 10402 10402 10402 10402 10401 10401 10400 10399 10399 10398 10397 10396 10396 10394 10393 10392 10391 10390 10389 10387 10386 10384 10383 10382 10381 10379 10378 10377 10376 10375 10374 10374 10373 10372 10372 10371 10370 10369 10367 10366 10364 10363 10361
10446 10446 10446 10446 10445 10444 10443 10442 10441 10439 10438 10437 10437 10436 10434 10434 10432 10430 10427 10426 10426 10425 10422 10421 10419 10418 10417 10416 10414 10412 10411 10409 10407 10406 10406 10405 10403 10402 10402 10402 10401 10399 10399 10397 10396 10396 10396 10396 10396 10395 10394 10394 10394 10393 10392 10391 10390 10389 10387 10386 10386 10384 10383 10381 10380 10379 10377 10376 10374 10373 10372 10371 10369 10369 10368 10367 10367 10366 10366 10364 10364 10362 10361 10359 10357 10356
10439 10439 10439 10439 10438 10437 10436 10435 10434 10432 10432 10431 10430 10429 10427 10427 10426 10424 10422 10421 10420 10419 10416 10415 10414 10412 10411 10410 10409 10407 10406 10404 10402 10401 10401 10399 10398 10397 10397 10396 10395 10394 10393 10392 10390 10389 10389 10389 10390 10390 10389 10389 10388 10388 10387 10386 10385 10384 10382 10382 10381 10379 10378 10377 10375 10374 10372 10371 10369 10368 10366 10365 10364 10363 10362 10361 10361 10360 10359 10359 10358 10357 10355 10353 10351 10349
10432 10432 10432 10431 10431 10430 10429 10428 10427 10426 10425 10424 10423 10422 10421 10420 10419 10417 10416 10415 10413 10412 10411 10409 10407 10406 10405 10404 10403 10401 10400 10398 10397 10397 10396 10395 10392 10391 10392 10391 10390 10389 10388 10387 10385 10383 10381 10381 10382 10384 10384 10383 10382 10382 10382 10381 10379 10378 10377 10376 10375 10374 10373 10372 10370 10368 10367 10366 10364 10362 10361 10359 10358 10357 10356 10355 10354 10354 10354 10353 10352 10351 10349 10347 10345 10343
10426 10426 10425 10424 10423 10422 10422 10421 10420 10419 10418 10417 10416 10416 10414 10413 10412 10411 10409 10408 10407 10406 10404 10403 10402 10401 10399 10399 10397 10396 10395 10394 10392 10392 10392 10390 10388 10387 10387 10386 10385 10384 10383 10382 10381 10379 10376 10374 10374 10376 10377 10377 10376 10376 10376 10375 10374 10372 10372 10371 10369 10368 10367 10366 10364 10362 10361 10359 10358 10356 10355 10354 10352 10351 10350 10349 10348 10347 10347 10346 10346 10344 10343 10341 10339 10337
10419 10418 10417 10417 10416 10416 10414 10414 10413 10412 10411 10411 10409 10409 10407 10406 10406 10404 10403 10402 10401 10399 10398 10397 10396 10394 10394 10393 10392 10391 10390 10389 10388 10387 10387 10386 10384 10382 10381 10381 10380 10379 10378 10377 10376 10375 10373 10370 10368 10368 10368 10369 10369 10369 10369 10368 10367 10367 10366 10364 10362 10361 10361 10360 10359 10357 10355 10354 10352 10350 10349 10347 10346 10344 10343 10342 10341 10340 10339 10339 10338 10337 10336 10334 10332 10331
10412 10411 10410 10409 10409 10408 10407 10407 10406 10406 10404 10404 10403 10402 10401 10400 10399 10397 10396 10396 10394 10393 10392 10391 10390 10389 10388 10387 10387 10386 10385 10384 10383 10382 10382 10381 10379 10377 10376 10376 10376 10374 10374 10372 10371 10370 10369 10367 10365 10362 10361 10360 10361 10361 10361 10361 10360 10359 10359 10357 10356 10354 10354 10353 10352 10350 10349 10347 10345 10344 10342 10341 10339 10337 10336 10334 10333 10332 10331 10331 10330 10329 10328 10327 10326 10324
10404 10404 10403 10402 10402 10401 10401 10400 10399 10399 10398 10397 10396 10395 10394 10393 10392 10391 10390 10389 10388 10387 10386 10386 10384 10384 10383 10382 10382 10381 10380 10379 10379 10378 10377 10376 10374 10372 10372 10371 10371 10370 10369 10367 10366 10366 10364 10362 10361 10359 10356 10354 10352 10352 10353 10353 10352 10352 10351 10350 10349 10347 10347 10346 10345 10343 10341 10340 10338 10336 10335 10333 10331 10329 10327 10326 10325 10324 10322 10322 10321 10321 10320 10319 10318 10317
10397 10396 10396 10396 10395 10394 10394 10393 10392 10392 10391 10390 10389 10389 10387 10387 10386 10385 10384 10383 10382 10381 10381 10380 10379 10379 10378 10377 10377 10376 10375 10374 10374 10374 10372 10371 10370 10369 10367 10366 10366 10366 10364 10362 10361 10361 10359 10357 10355 10354 10352 10349 10347 10345 10345 10346 10346 10344 10343 10342 10341 10341 10340 10339 10339 10337 10335 10333 10331 10329 10327 10326 10324 10321 10319 10317 10316 10315 10314 10313 10312 10311 10311 10309 10309 10308
10390 10389 10389 10389 10388 10388 10387 10386 10386 10385 10384 10384 10382 10382 10381 10381 10379 10379 10378 10377 10377 10376 10375 10374 10374 10374 10373 10372 10372 10371 10371 10370 10369 10369 10368 10367 10366 10365 10363 10362 10361 10361 10361 10358 10357 10356 10354 10352 10350 10348 10347 10344 10342 10339 10338 10337 10337 10337 10336 10334 10334 10333 10332 10332 10331 10331 10329 10326 10324 10322 10320 10318 10316 10314 10311 10309 10308 10306 10305 10304 10303 10302 10301 10300 10299 10298
10383 10382 10382 10382 10382 10381 10381 10380 10379 10379 10378 10377 10377 10376 10375 10374 10374 10373 10372 10372 10371 10371 10370 10369 10369 10369 10369 10368 10367 10367 10366 10365 10364 10364 10363 10362 10362 10361 10359 10357 10357 10356 10356 10354 10352 10351 10349 10347 10345 10342 10341 10339 10337 10335 10333 10332 10331 10329 10328 10327 10326 10325 10324 10324 10324 10322 10321 10319 10317 10315 10313 10311 10309 10306 10304 10302 10300 10298 10296 10295 10294 10293 10292 10291 10290 10289
10376 10376 10376 10376 10375 10374 10374 10374 10373 10372 10372 10371 10371 10370 10369 10369 10368 10367 10367 10366 10366 10366 10365 10365 10364 10364 10364 10364 10363 10362 10362 10361 10360 10359 10359 10358 10357 10356 10356 10354 10352 10351 10351 10349 10348 10346 10344 10342 10341 10338 10336 10333 10331 10329 10327 10326 10326 10324 10322 10320 10318 10317 10316 10316 10316 10314 10313 10311 10309 10307 10305 10303 10301 10299 10296 10294 10292 10290 10288 10286 10285 10284 10283 10282 10281 10279
10370 10369 10369 10369 10369 10368 10368 10367 10367 10366 10366 10365 10364 10364 10364 10363 10362 10362 10362 10361 10361 10361 10361 10360 10360 10359 10359 10359 10359 10358 10357 10356 10356 10355 10354 10354 10352 10352 10351 10349 10348 10346 10345 10344 10343 10341 10339 10337 10335 10333 10331 10329 10326 10323 10321 10321 10320 10319 10318 10315 10312 10309 10307 10307 10307 10306 10305 10304 10302 10299 10297 10295 10293 10291 10288 10286 10284 10282 10280 10278 10277 10276 10274 10274 10272 10270
10364 10363 10363 10362 10362 10362 10362 10361 10361 10361 10360 10359 10359 10359 10358 10357 10357 10357 10357 10357 10356 10356 10356 10356 10355 10355 10354 10354 10354 10354 10353 10352 10351 10351 10350 10349 10348 10347 10346 10345 10343 10342 10340 10339 10337 10336 10334 10332 10330 10327 10326 10324 10322 10319 10317 10315 10314 10314 10313 10311 10307 10304 10302 10300 10299 10298 10297 10295 10294 10292 10290 10287 10285 10283 10281 10278 10276 10274 10272 10271 10269 10267 10266 10266 10264 10263
10357 10357 10357 10357 10356 10356 10356 10356 10355 10355 10354 10354 10354 10353 10352 10352 10352 10352 10352 10352 10352 10351 10351 10351 10351 10350 10350 10350 10350 10350 10349 10348 10347 10346 10346 10344 10344 10342 10341 10340 10339 10337 10335 10333 10331 10329 10328 10327 10324 10322 10321 10319 10317 10315 10312 10310 10309 10308 10307 10306 10303 10300 10297 10294 10293 10292 10291 10288 10286 10284 10283 10281 10278 10276 10273 10271 10268 10266 10264 10263 10261 10259 10258 10257 10256 10255
10352 10351 10351 10351 10351 10350 10350 10350 10349 10349 10349 10349 10349 10348 10348 10348 10348 10348 10347 10347 10347 10347 10347 10347 10346 10346 10346 10345 10345 10345 10345 10344 10343 10342 10341 10340 10339 10337 10336 10335 10333 10332 10330 10328 10326 10323 10322 10321 10319 10317 10315 10314 10312 10310 10307 10305 10303 10302 10301 10300 10299 10296 10292 10289 10287 10286 10284 10281 10279 10277 10276 10274 10272 10269 10267 10264 10261 10259 10257 10254 10253 10252 10251 10250 10249 10247
10346 10346 10346 10345 10345 10345 10344 10344 10344 10344 10344 10344 10344 10344 10344 10344 10344 10344 10344 10343 10342 10342 10342 10342 10342 10342 10341 10341 10340 10340 10340 10340 10339 10338 10337 10336 10334 10332 10331 10329 10327 10326 10325 10323 10321 10317 10316 10314 10312 10311 10310 10309 10307 10304 10302 10300 10298 10296 10294 10293 10292 10291 10288 10285 10282 10280 10277 10275 10272 10271 10269 10267 10266 10264 10261 10257 10255 10252 10249 10247 10245 10244 10242 10242 10241 10239
10341 10341 10340 10340 10340 10340 10339 10339 10339 10339 10340 10340 10339 10339 10339 10339 10339 10339 10339 10339 10339 10338 10338 10338 10337 10337 10336 10336 10335 10335 10335 10334 10334 10333 10332 10331 10329 10327 10326 10324 10322 10321 10319 10317 10316 10314 10311 10308 10306 10304 10303 10302 10301 10299 10296 10294 10292 10291 10289 10287 10286 10284 10282 10280 10277 10276 10272 10269 10267 10264 10263 10262 10260 10257 10254 10251 10248 10245 10242 10240 10238 10236 10235 10234 10233 10232
10336 10336 10335 10335 10335 10335 10335 10335 10335 10336 10336 10336 10336 10335 10336 10336 10336 10336 10335 10335 10334 10334 10334 10334 10333 10332 10331 10331 10330 10330 10329 10329 10328 10327 10326 10325 10324 10322 10321 10319 10317 10316 10314 10312 10311 10309 10306 10303 10300 10298 10296 10295 10293 10292 10290 10289 10287 10285 10282 10281 10279 10277 10275 10273 10271 10269 10267 10265 10262 10259 10257 10256 10254 10252 10249 10245 10242 10239 10236 10233 10231 10229 10228 10227 10226 10224
10331 10331 10331 10331 10331 10331 10331 10331 10331 10331 10331 10331 10331 10331 10331 10332 10331 10331 10331 10331 10331 10330 10329 10329 10329 10327 10326 10326 10325 10324 10323 10322 10321 10321 10320 10319 10318 10317 10316 10315 10314 10312 10310 10308 10305 10302 10300 10297 10295 10293 10291 10289 10287 10284 10282 10282 10281 10279 10277 10274 10273 10271 10269 10266 10264 10262 10261 10259 10256 10254 10251 10250 10248 10246 10242 10239 10236 10232 10229 10226 10224 10222 10221 10221 10219 10217
10326 10326 10326 10326 10327 10327 10327 10327 10327 10327 10327 10327 10327 10327 10327 10328 10327 10327 10327 10326 10326 10326 10325 10324 10323 10322 10321 10320 10319 10319 10317 10316 10315 10314 10314 10313 10313 10312 10311 10310 10309 10307 10305 10302 10300 10297 10294 10292 10289 10287 10286 10284 10282 10279 10276 10274 10273 10272 10270 10269 10267 10265 10262 10260 10258 10256 10254 10252 10249 10247 10246 10244 10242 10239 10237 10234 10230 10226 10222 10219 10217 10216 10214 10214 10212 10211
10322 10322 10322 10322 10323 10323 10323 10323 10324 10324 10324 10324 10324 10324 10324 10324 10324 10323 10322 10322 10321 10321 10320 10319 10318 10317 10316 10314 10313 10312 10312 10311 10309 10309 10308 10307 10307 10306 10305 10304 10302 10301 10298 10296 10294 10291 10288 10285 10282 10281 10280 10279 10277 10274 10271 10268 10266 10265 10264 10262 10261 10259 10257 10254 10252 10250 10248 10245 10242 10241 10239 10237 10236 10234 10232 10228 10224 10221 10217 10213 10210 10208 10207 10207 10206 10204
10318 10319 10319 10319 10319 10319 10320 10320 10320 10321 10320 10320 10320 10320 10320 10319 10319 10319 10318 10317 10317 10316 10315 10314 10312 10311 10310 10309 10308 10307 10306 10306 10304 10304 10303 10302 10301 10300 10298 10296 10295 10293 10291 10288 10286 10284 10281 10277 10274 10272 10272 10272 10271 10269 10264 10261 10259 10258 10257 10256 10254 10252 10251 10248 10246 10244 10241 10238 10236 10233 10231 10230 10228 10227 10226 10222 10219 10215 10211 10207 10204 10202 10201 10199 10199 10197
10315 10315 10316 10316 10316 10316 10316 10316 10317 10316 10316 10316 10316 10316 10315 10315 10314 10314 10313 10312 10312 10311 10309 10308 10307 10306 10305 10304 10303 10302 10302 10301 10299 10298 10297 10296 10295 10293 10291 10289 10288 10286 10284 10281 10279 10277 10274 10271 10267 10262 10260 10261 10262 10262 10259 10255 10252 10251 10249 10247 10247 10246 10244 10241 10239 10236 10234 10231 10229 10226 10224 10222 10221 10219 10218 10216 10212 10209 10205 10202 10199 10196 10194 10193 10191 10189